Location: Chagrin Falls Park
(41.4139°N, 81.3865°W)
Time: 04:01:37
(UTC+00:00)

STARLINK-2695 - Pass Details

Date: 31 July 2021
Orbit: 546 x 548 km, 53.1° (Epoch: 21 September)

Event Time Altitude Azimuth Distance (km) Brightness Sun altitude
Rises 02:25:42 0° 302° (WNW) 2,720 8.8 -16.4°
Reaches altitude 10° 02:28:03 10° 294° (WNW) 1,822 7.4 -16.7°
Maximum altitude 02:31:52 37° 226° (SW) 866 4.6 -17.2°
Enters shadow 02:33:23 27° 183° (S) 1,076 4.7 -17.4°
